Other Surface Observations
Issued by NWS Tucson, AZ

Home | Current Version | Previous Version | Text Only | Print | Product List | Glossary On
Versions: 1 2 3 4 5 6 7 8 9 10 11 12 13 14 15 16 17 18 19 20 21 22 23 24 25 26 27 28 29 30 31 32 33 34 35 36 37 38 39 40 41 42 43 44 45 46 47 48 49 50
000
SXUS55 KTWC 250915
OSOTWC

WEATHER ROUNDUP FOR SOUTHEAST ARIZONA
NATIONAL WEATHER SERVICE TUCSON AZ
215 AM MST TUE APR 25 2017

AZZ504>506-514-251015-
LOCATION       SKY/WX    TMP DP  RH WIND       PRES   REMARKS
TUCSON         MOCLDY    72  18  13 S16G25    29.73F
DAVIS-MONTHAN  PTCLDY    70  17  13 S15       29.72F
CHILDRENS PARK N/A      N/A N/A  14 E2                PIMA CO DEQ
ALVERNON/22ND  N/A       73 N/A N/A SW5               PIMA CO DEQ
CHERRY/GLENN   N/A      N/A N/A N/A N/A               PIMA CO DEQ
TANGERINE      N/A       62 N/A N/A N2                PIMA CO DEQ
CONTL RANCH    N/A       74  18  12 S4                PIMA CO DEQ
GRANT/1ST      N/A       74  18  12 S4                PIMA CO DEQ
CRAYCROFT/22ND N/A       72  17  12 N/A               PIMA CO DEQ
GOLFLINKS/KOLB N/A      N/A N/A N/A N/A               PIMA CO DEQ
AJO/12TH       N/A       71  23  16 S8                PIMA CO DEQ
FAIRGROUNDS    N/A       69 N/A N/A SW10              PIMA CO DEQ
SAGUARO        N/A       63  20  19 SW2               *SABINO CYN
SAN CARLOS     N/A       71  21  15 SW9G13            *SAN CARLOS
GREEN VALLEY   N/A       68  15  13 SW11              PIMA CO DEQ
HORSE CAMP CYN N/A       65  18  16 SW13G19           *ARAVAIPA CYN
RINCON MTNS    NOT AVBL
$$

AZZ509>511-251015-
LOCATION       SKY/WX    TMP DP  RH WIND       PRES   REMARKS
SAFFORD        MOCLDY    70  17  13 NW13      29.68F
STRAY HORSE    N/A       48  16  28 N/A               *
TRAIL CABIN    N/A       54  18  24 NW3G13            *N OF GRANVILLE
BLACK HILLS    NOT AVBL
DRY LAKE       N/A       49  14  24 SW8G19            *NATANES MTNS
NOON CREEK     NOT AVBL
COLUMBINE      N/A       40  10  29 SW7G18            *PINALENO MTNS
GUTHRIE        N/A       57  16  20 W18G33            *SW OF GUTHRIE
$$

AZZ502-503-513-251015-
LOCATION       SKY/WX    TMP DP  RH WIND       PRES   REMARKS
NOGALES        PTCLDY    63  22  20 S10       29.83F
SELLS          N/A       72  25  17 S10G15            *
SASABE         N/A       63  19  18 S6G14             *ALTAR VLY
HOPKINS        N/A       50  11  20 W9G17             *SANTA RITA MTNS
CARR CYN       N/A       62  17  17 SW5G17            *W OF HEREFORD
$$

AZZ507-508-512-251015-
LOCATION       SKY/WX    TMP DP  RH WIND       PRES   REMARKS
SIERRA VISTA   MOCLDY    65  16  15 S17G24    29.83F
DOUGLAS        CLOUDY    65  21  18 S7        29.82F
EMPIRE MTNS    NOT AVBL
MULESHOE RANCH N/A       63  15  15 N3G15             *PRESERVE
HEADQUARTERS   NOT AVBL
$$

.............................NOTES.............................
THIS IS AN AUTOMATED COLLECTIVE WITH MINIMAL QUALITY CONTROL.
PIMA CO DEQ SITES HAVE NONSTANDARD WIND SENSOR HEIGHTS.
PIMA CO DEQ SITES DO NOT REPORT WIND GUSTS.
* INDICATES WIND SENSORS LOCATED AT 20 FEET INSTEAD OF 33 FEET.
..............................KEY..............................
SKY/WX - SKY CONDITION/WEATHER
TMP    - TEMPERATURE IN FAHRENHEIT
DP     - DEWPOINT IN FAHRENHEIT
RH     - RELATIVE HUMIDITY IN PERCENT
WIND   - DIRECTION AND SPEED IN MILES PER HOUR (MPH)
VRB    - VARIABLE WIND DIRECTION
PRES   - MEAN SEA LEVEL PRESSURE IN INCHES OF MERCURY
         F - FALLING PRESSURE   R - RISING PRESSURE
         S - STEADY PRESSURE
VSB    - VISIBILITY IN MILES
HX     - HEAT INDEX IN FAHRENHEIT
WCI    - WIND CHILL INDEX IN FAHRENHEIT
N/A    - NOT AVAILABLE
AFB    - AIR FORCE BASE
         DAVIS-MONTHAN IS DAVIS-MONTHAN AIR FORCE BASE
CYN    - CANYON
MTNS   - MOUNTAINS
NCA    - NATIONAL CONSERVATION AREA
NR     - NEAR
VLY    - VALLEY
CONTL  - CONTINENTAL
PIMA CO DEQ - PIMA COUNTY DEPT OF ENVIRONMENTAL QUALITY



USA.gov is the U.S. government's official web portal to all federal, state and local government web resources and services.